This is the latest recevied weather packets stored in our database for station/object KV4OP. If no packets are shown the sender has not sent any weather packets the latest 10 day(s).
| Time | Temp. | Humidity | Pressure | Rain* | Wind** | Luminosity | Snow |
|---|---|---|---|---|---|---|---|
| 1778098834 | 33.33° C | 44% | 1015.5 hPa | 0 mm | - | - | - |
| 1778098534 | 33.33° C | 42% | 1015.4 hPa | 0 mm | - | - | - |
| 1778098233 | 32.78° C | 42% | 1015.4 hPa | 0 mm | - | - | - |
| 1778097932 | 33.33° C | 48% | 1015.5 hPa | 0 mm | - | - | - |
| 1778097634 | 32.78° C | 46% | 1015.6 hPa | 0 mm | - | - | - |
| 1778097331 | 33.33° C | 45% | 1015.6 hPa | 0 mm | - | - | - |
| 1778097032 | 33.33° C | 44% | 1015.6 hPa | 0 mm | - | - | - |
| 1778096731 | 32.78° C | 46% | 1015.7 hPa | 0 mm | - | - | - |
| 1778096431 | 33.33° C | 41% | 1015.7 hPa | 0 mm | - | - | - |
| 1778096130 | 32.78° C | 42% | 1015.8 hPa | 0 mm | - | - | - |
| 1778095829 | 32.78° C | 45% | 1015.9 hPa | 0 mm | - | - | - |
| 1778095528 | 32.78° C | 46% | 1015.9 hPa | 0 mm | - | - | - |
| 1778095228 | 32.78° C | 46% | 1016 hPa | 0 mm | - | - | - |
| 1778094933 | 32.78° C | 44% | 1016 hPa | 0 mm | - | - | - |
| 1778094627 | 32.78° C | 44% | 1016.1 hPa | 0 mm | - | - | - |
| 1778094328 | 32.78° C | 42% | 1016.2 hPa | 0 mm | - | - | - |
| 1778094027 | 32.78° C | 46% | 1016.3 hPa | 0 mm | - | - | - |
| 1778093726 | 33.89° C | 45% | 1016.5 hPa | 0 mm | - | - | - |
| 1778093425 | 32.78° C | 45% | 1016.5 hPa | 0 mm | - | - | - |
| 1778093129 | 32.22° C | 49% | 1016.6 hPa | 0 mm | - | - | - |
| 1778092825 | 32.22° C | 48% | 1016.7 hPa | 0 mm | - | - | - |
| 1778092525 | 32.22° C | 47% | 1016.7 hPa | 0 mm | - | - | - |
| 1778092226 | 32.22° C | 45% | 1016.6 hPa | 0 mm | - | - | - |
| 1778091925 | 32.78° C | 48% | 1016.6 hPa | 0 mm | - | - | - |
| 1778091624 | 32.22° C | 49% | 1016.7 hPa | 0 mm | - | - | - |
* Rain latest hour (hover to see other rain measurements)
** Current wind speed in m/s (hover to see current wind gust speed)